[[{"header":{"parameterUnit":"m.s-1","parameterCategory":1,"la1":30.2991,"la2":30.254,"lo1":-89.0895,"lo2":-89.0444,"dy":0.0017,"dx":0.0017,"nx":28,"ny":28,"refTime":"2023-09-05T03:00:00:Z","depth":0,"parameterNumber":2,"parameterNumberName":"U-component_of_WINDS"},"data":[0,0,0,0,0,0,0,0,0,0,0,0,0,0,0,0,0,0,0,0,0,0,0,0,0,0,0,0,0,0,0,0,0,0,0,0,0,0,0,0,0,0,0,0,0,0,0,0,0,0,0,0,0,0,0,0,0,0,-3.9527,-3.9527,0,-3.9532,-3.9532,-3.9532,-3.9454,-3.9452,-3.945,-3.9448,-3.9454,-3.9456,-3.9458,0,0,0,0,0,0,0,0,0,0,0,0,0,-3.9449,-3.9451,-3.9527,-3.9527,-3.9527,-3.9532,-3.9532,-3.9532,-3.9454,-3.9452,-3.9449,-3.9447,-3.9453,-3.9455,-3.9458,0,0,0,0,0,0,0,0,0,0,0,0,0,-3.9472,-3.9452,-3.9527,-3.9489,-3.9485,-3.9532,-3.9532,-3.9532,-3.9455,-3.9452,-3.9449,-3.9446,-3.9452,-3.9455,-3.9458,-3.9542,0,0,-3.9468,-3.947,0,0,0,0,0,0,0,0,-3.9471,-3.9475,-3.9494,-3.9491,-3.9488,-3.9489,-3.9507,-3.9535,-3.9456,-3.9467,-3.9448,-3.9444,-3.9468,-3.947,-3.9478,-3.9542,-3.9542,-3.9468,-3.947,-3.9472,-3.9473,0,0,0,0,0,0,0,-3.9469,-3.9474,-3.9529,-3.9495,-3.9491,-3.9471,-3.9471,-3.9512,-3.9485,-3.9465,-3.946,-3.9461,-3.9466,-3.9475,-3.9477,-3.9542,-3.9468,-3.9471,-3.9473,-3.9474,-3.9674,-3.9677,0,0,0,0,0,0,-3.9473,-3.9473,-3.9529,-3.9529,-3.9471,-3.9475,-3.9475,-3.9492,-3.9484,-3.948,-3.9464,-3.9458,-3.9471,-3.9474,-3.9477,-3.9573,-3.9472,-3.9475,-3.9477,-3.9671,-3.9675,-3.9678,0,0,0,0,0,0,-3.9471,-3.9478,-3.9528,-3.95,-3.9504,-3.948,-3.95,-3.9494,-3.9503,-3.9483,-3.9478,-3.9478,-3.9469,-3.9473,-3.9526,-3.9572,-3.9476,-3.9479,-3.9667,-3.9672,-3.9676,-3.9766,0,0,0,0,0,0,-3.947,-3.9478,-3.951,-3.9501,-3.9506,-3.9577,-3.9503,-3.9496,-3.9508,-3.95,-3.9495,-3.9492,-3.9466,-3.9522,-3.9529,-3.9575,-3.9482,-3.9662,-3.9669,-3.9675,-3.9758,-3.9773,-3.9786,0,0,0,0,0,-3.9467,-3.9535,-3.9512,-3.9519,-3.9545,-3.958,-3.9583,-3.9553,-3.9512,-3.9544,-3.9531,-3.9492,-3.9566,-3.9528,-3.9536,-3.9583,-3.9659,-3.9667,-3.9674,-3.9752,-3.977,-3.9785,0,0,0,0,0,0,-3.9551,-3.9533,-3.9507,-3.9575,-3.9579,-3.9567,-3.9605,-3.9573,-3.9589,-3.9581,-3.9542,-3.9542,-3.9601,-3.9597,-3.9555,-3.9662,-3.9606,-3.9615,-3.9662,-3.9679,-3.9692,-3.9691,-3.9484,0,0,0,0,0,-3.9577,-3.9607,-3.959,-3.9651,-3.9655,-3.963,-3.9644,-3.962,-3.9624,-3.9625,-3.9617,-3.9622,-3.9646,-3.9662,-3.9684,-3.9758,-3.9755,-3.9795,-3.9808,-3.9819,-3.9828,-3.9865,-3.9882,-3.9703,-3.9703,-3.9703,0,0,-3.9631,-3.9626,-3.9647,-3.9668,-3.9669,-3.97,-3.9632,-3.9669,-3.9691,-3.9631,-3.968,-3.9674,-3.9677,-3.9741,-3.9768,-3.9739,-3.9876,-3.9829,-3.9838,-3.984,-3.9875,-3.9891,-3.9906,-3.9708,-3.9708,-3.9707,0,0,-3.9746,-3.9746,-3.9795,-3.9798,-3.98,-3.9782,-3.9795,-3.9787,-3.9781,-3.9829,-3.9784,-3.9811,-3.9854,-3.9857,-3.9865,-3.9981,-3.9945,-3.999,-4.006,-4.0097,-4.0111,-4.0123,-4.0163,-4.0178,-3.9998,-3.9998,-3.9998,0,-3.9814,-3.9859,-3.9825,-3.9864,-3.9874,-3.9821,-3.9871,-3.9875,-3.9884,-3.9892,-3.986,-3.9912,-3.991,-3.9973,-4.0001,-4.001,-4.0022,-3.9989,-4.0112,-4.0124,-4.0134,-4.0172,-4.0187,-4.0003,-4.0003,-4.0002,-4.0002,0,-3.9941,-3.9973,-4.0013,-4.0022,-4.0037,-4.0082,-4.0054,-4.0074,-4.0049,-4.0035,-4.0085,-4.0081,-4.01,-4.0114,-4.009,-4.0174,-4.0155,-4.0118,-4.006,-4.0157,-4.0192,-4.0206,-4.0011,-4.0009,-4.0008,-4.0006,0,0,-4.0107,-4.0097,-4.0112,-4.0115,-4.0114,-4.0138,-4.018,-4.0198,-4.0214,-4.0223,-4.0256,-4.0294,-4.0259,-4.0268,-4.0244,-4.0277,-4.0367,-4.0235,-4.0235,-4.0258,-4.0457,-4.0483,-4.05,-4.0344,-4.0346,-4.0349,-4.0456,0,-4.0217,-4.0287,-4.0258,-4.0331,-4.0359,-4.0309,-4.0346,-4.0349,-4.0337,-4.036,-4.0347,-4.0374,-4.0327,-4.0331,-4.0362,-4.035,-4.0406,-4.0342,-4.0373,-4.0375,-4.0372,-4.0518,-4.0547,-4.0648,-4.0469,-4.0471,-4.0473,0,-4.0355,-4.0368,-4.0443,-4.0435,-4.0446,-4.0479,-4.0493,-4.0515,-4.0518,-4.0507,-4.0517,-4.0485,-4.0525,-4.0469,-4.0523,-4.048,-4.0492,-4.0488,-4.0491,-4.0491,-4.0428,-4.0521,-4.068,-4.0694,-4.0494,-4.0492,-4.0491,0,-4.0466,-4.0503,-4.0552,-4.0557,-4.0549,-4.0573,-4.0572,-4.057,-4.0583,-4.0595,-4.0603,-4.062,-4.063,-4.0644,-4.0618,-4.058,-4.0675,-4.0617,-4.0667,-4.0667,-4.0687,-4.0686,-4.0848,-4.0699,-4.0698,-4.0698,-4.0698,0,-4.0591,-4.0639,-4.0602,-4.0632,-4.0684,-4.065,-4.0703,-4.0695,-4.0695,-4.0722,-4.0681,-4.0708,-4.0673,-4.0697,-4.0677,-4.0724,-4.0729,-4.0721,-4.0715,-4.0724,-4.0724,-4.0729,-4.0721,-4.0702,-4.0701,-4.07,-4.07,0,-4.0724,-4.0701,-4.0751,-4.074,-4.0738,-4.0777,-4.0767,-4.0794,-4.078,-4.0815,-4.0822,-4.08,-4.0825,-4.0801,-4.0826,-4.0813,-4.0875,-4.086,-4.0874,-4.0869,-4.0919,-4.0914,-4.1088,-4.1109,-4.0948,-4.0949,-4.0951,0,-4.0804,-4.0839,-4.0831,-4.0847,-4.0847,-4.0872,-4.0885,-4.0853,-4.0868,-4.0872,-4.0899,-4.0921,-4.0936,-4.098,-4.0966,-4.0984,-4.0968,-4.1028,-4.097,-4.0977,-4.0966,-4.0964,-4.0966,-4.1039,-4.1041,-4.1042,-4.1043,0,-4.0948,-4.0935,-4.0954,-4.0969,-4.0985,-4.0995,-4.1003,-4.1018,-4.0985,-4.1004,-4.1029,-4.1041,-4.1065,-4.1087,-4.1101,-4.1099,-4.1066,-4.1062,-4.1074,-4.1082,-4.1088,-4.1084,-4.0904,-4.1058,-4.1056,-4.1055,-4.1054,-4.1054,-4.1056,-4.1084,-4.1082,-4.1105,-4.1107,-4.1114,-4.1139,-4.1128,-4.1148,-4.1165,-4.1145,-4.1176,-4.1176,-4.1191,-4.1193,-4.1217,-4.1191,-4.1209,-4.1213,-4.1218,-4.1224,-4.1086,-4.1219,-4.1219,-4.1218,-4.1218,-4.1218,0,-4.1196,-4.1192,-4.1213,-4.1224,-4.1242,-4.1209,-4.1215,-4.1232,-4.1259,-4.1262,-4.1278,-4.1306,-4.1327,-4.1315,-4.1333,-4.1354,-4.1339,-4.136,-4.1357,-4.1357,-4.1247,-4.1234,-4.1371,-4.1371,-4.1371,-4.1371,-4.1371,-4.1371,-4.1271,-4.1316,-4.1303,-4.1349,-4.1345,-4.1374,-4.138,-4.1387,-4.1389,-4.1422,-4.1439,-4.1431,-4.1428,-4.1445,-4.1463,-4.1458,-4.1466,-4.1492,-4.1482,-4.138,-4.1364,-4.135,-4.1337,-4.1494,-4.1495,-4.159,-4.1591,-4.1591]},{"header":{"parameterUnit":"m.s-1","parameterCategory":1,"la1":30.2991,"la2":30.254,"lo1":-89.0895,"lo2":-89.0444,"dy":0.0017,"dx":0.0017,"nx":28,"ny":28,"refTime":"2023-09-05T03:00:00:Z","depth":0,"parameterNumber":3,"parameterNumberName":"V-component_of_WINDS"},"data":[0,0,0,0,0,0,0,0,0,0,0,0,0,0,0,0,0,0,0,0,0,0,0,0,0,0,0,0,0,0,0,0,0,0,0,0,0,0,0,0,0,0,0,0,0,0,0,0,0,0,0,0,0,0,0,0,0,0,4.5264,4.5264,0,4.5261,4.5261,4.5261,4.517,4.5168,4.5165,4.5163,4.516,4.5162,4.5164,0,0,0,0,0,0,0,0,0,0,0,0,0,4.519,4.5192,4.5264,4.5264,4.5264,4.5261,4.5261,4.5261,4.517,4.5168,4.5165,4.5162,4.5159,4.5162,4.5164,0,0,0,0,0,0,0,0,0,0,0,0,0,4.5208,4.5192,4.5264,4.5218,4.5214,4.5261,4.5261,4.5261,4.5171,4.5168,4.5164,4.5161,4.5159,4.5162,4.5165,4.5255,0,0,4.5174,4.5176,0,0,0,0,0,0,0,0,4.5207,4.5211,4.5225,4.5221,4.5217,4.5212,4.5234,4.5259,4.5172,4.5187,4.5163,4.5159,4.518,4.5181,4.5189,4.5255,4.5255,4.5175,4.5177,4.5178,4.5179,0,0,0,0,0,0,0,4.5206,4.521,4.5262,4.5225,4.522,4.5198,4.5196,4.5238,4.5204,4.5186,4.5179,4.518,4.5177,4.5186,4.5188,4.5255,4.5175,4.5177,4.5179,4.5181,4.5393,4.5397,0,0,0,0,0,0,4.5211,4.521,4.5263,4.5262,4.5203,4.5202,4.52,4.5217,4.5203,4.5197,4.5183,4.5176,4.5182,4.5184,4.5187,4.529,4.5178,4.5181,4.5183,4.5389,4.5394,4.5398,0,0,0,0,0,0,4.521,4.5217,4.5263,4.5234,4.5239,4.5207,4.5227,4.5219,4.5227,4.5201,4.5194,4.5198,4.5179,4.5183,4.5238,4.5289,4.5182,4.5185,4.5385,4.5391,4.5396,4.5498,0,0,0,0,0,0,4.5208,4.5217,4.5251,4.5236,4.524,4.5314,4.523,4.5222,4.5233,4.5224,4.5213,4.5208,4.5177,4.5234,4.5242,4.5291,4.5188,4.538,4.5387,4.5394,4.549,4.5506,4.552,0,0,0,0,0,4.5206,4.528,4.5253,4.526,4.5282,4.5317,4.532,4.5282,4.5238,4.5271,4.5254,4.5208,4.5283,4.5241,4.5248,4.53,4.5377,4.5385,4.5394,4.5483,4.5503,4.552,0,0,0,0,0,0,4.5301,4.5277,4.5247,4.5318,4.5321,4.5302,4.5343,4.5305,4.532,4.5311,4.5264,4.5262,4.5325,4.5318,4.5271,4.5386,4.5322,4.5332,4.5387,4.5406,4.5421,4.542,4.519,0,0,0,0,0,4.5331,4.5361,4.5338,4.5404,4.5406,4.5375,4.5389,4.536,4.536,4.5361,4.5348,4.535,4.5373,4.539,4.541,4.5489,4.5485,4.5529,4.5544,4.5557,4.5565,4.5605,4.5624,4.5426,4.5425,4.5425,0,0,4.5392,4.5382,4.5404,4.5423,4.5421,4.5453,4.5376,4.5414,4.5437,4.5366,4.5417,4.5408,4.5407,4.5475,4.5504,4.5471,4.562,4.5567,4.5578,4.5579,4.5616,4.5635,4.5651,4.5431,4.543,4.5429,0,0,4.5518,4.5515,4.5568,4.5568,4.5567,4.5545,4.5558,4.5545,4.5536,4.5587,4.5535,4.5562,4.5604,4.5605,4.5611,4.5739,4.5697,4.5747,4.5826,4.5866,4.5881,4.5895,4.5939,4.5955,4.5757,4.5757,4.5757,0,4.5594,4.564,4.56,4.5641,4.565,4.5588,4.5641,4.5643,4.5649,4.5656,4.562,4.5671,4.5666,4.5732,4.5763,4.5771,4.5784,4.5747,4.5882,4.5896,4.5908,4.5949,4.5966,4.5763,4.5762,4.5762,4.5761,0,4.5732,4.5765,4.5809,4.5815,4.5829,4.5876,4.5843,4.5862,4.5833,4.5815,4.5867,4.586,4.5877,4.5891,4.5863,4.5953,4.5933,4.5891,4.5825,4.5933,4.5971,4.5986,4.5771,4.5769,4.5767,4.5766,0,0,4.5917,4.5901,4.5917,4.5919,4.5913,4.5938,4.5982,4.5999,4.6015,4.6022,4.6057,4.6094,4.6055,4.6062,4.6033,4.6069,4.6168,4.6021,4.6021,4.6047,4.6265,4.6295,4.6314,4.6141,4.6144,4.6147,4.6265,0,4.6038,4.6111,4.6077,4.6154,4.6184,4.6126,4.6164,4.6165,4.615,4.6172,4.6156,4.6183,4.613,4.6133,4.6166,4.6149,4.6211,4.6141,4.6172,4.6174,4.6171,4.6334,4.6366,4.6478,4.6279,4.6282,4.6284,0,4.6188,4.62,4.628,4.6268,4.6279,4.6314,4.6326,4.6349,4.6348,4.6335,4.6344,4.6307,4.6349,4.6286,4.6343,4.6296,4.6307,4.6301,4.6304,4.6304,4.6233,4.6336,4.6513,4.6529,4.6307,4.6305,4.6303,0,4.6312,4.6349,4.6401,4.6404,4.6392,4.6418,4.6414,4.641,4.6422,4.6433,4.644,4.6457,4.6465,4.6479,4.6447,4.6405,4.6508,4.6443,4.6497,4.6498,4.6519,4.6517,4.6698,4.6531,4.653,4.653,4.653,0,4.6449,4.65,4.6456,4.6488,4.6543,4.6504,4.6559,4.6549,4.6546,4.6575,4.6527,4.6555,4.6513,4.6537,4.6513,4.6563,4.6568,4.6557,4.655,4.656,4.6561,4.6565,4.6556,4.6535,4.6534,4.6533,4.6532,0,4.6596,4.6569,4.6622,4.6606,4.6603,4.6644,4.6631,4.6659,4.6642,4.6679,4.6685,4.6658,4.6683,4.6654,4.6678,4.6661,4.6728,4.671,4.6728,4.6722,4.6777,4.6771,4.6964,4.6986,4.6807,4.6809,4.6811,0,4.6684,4.6721,4.671,4.6725,4.6724,4.675,4.6762,4.6725,4.674,4.6742,4.677,4.6792,4.6807,4.6851,4.6832,4.685,4.6831,4.6897,4.6833,4.6842,4.6829,4.6827,4.6829,4.691,4.6912,4.6914,4.6915,0,4.6842,4.6827,4.6846,4.686,4.6876,4.6886,4.6892,4.6908,4.6869,4.6888,4.6913,4.6925,4.6949,4.697,4.6983,4.6979,4.6941,4.6936,4.6949,4.6958,4.6966,4.6961,4.6761,4.6931,4.6929,4.6928,4.6927,4.6927,4.696,4.699,4.6987,4.7009,4.701,4.7017,4.7043,4.7029,4.7049,4.7065,4.7042,4.7074,4.7072,4.7085,4.7085,4.7109,4.708,4.71,4.7104,4.7109,4.7117,4.6965,4.7111,4.7111,4.7111,4.711,4.711,0,4.7114,4.7109,4.713,4.714,4.7158,4.7121,4.7126,4.7143,4.7171,4.7173,4.7189,4.7218,4.7239,4.7223,4.724,4.7262,4.7245,4.7268,4.7264,4.7264,4.7142,4.7128,4.7281,4.7281,4.7281,4.7281,4.7281,4.7281,4.7196,4.7245,4.7229,4.7278,4.7272,4.7302,4.7308,4.7314,4.7314,4.7349,4.7366,4.7355,4.735,4.7366,4.7384,4.7378,4.7386,4.7415,4.7403,4.7289,4.7272,4.7256,4.7243,4.7418,4.7418,4.7523,4.7524,4.7524]}]]